1998-067WN

Last updated on Thu May 16 2024 00:02:03 GMT+0000 (Coordinated Universal Time)

1 59563U 98067WN 24136.42908949 .00095365 00000+0 14094-2 0 9996 2 59563 51.6362 117.3722 0003379 152.9703 207.1465 15.54534089 4211
UTC large
Height (km)
Speed (km/s)
/
Latitude / Longitude
Inclination (degrees)
Orbital Period (minutes)
Azimuth
Elevation
Range (km)
Doppler Factor

Next 0 passes for location: London (51.5072 / 0.1276)

Sorry there are no passes over London.